TimeCST,TemperatureF,Dew PointF,Humidity,Sea Level PressureIn,VisibilityMPH,Wind Direction,Wind SpeedMPH,Gust SpeedMPH,PrecipitationIn,Events,Conditions,WindDirDegrees,DateUTC
12:15 AM,10.4,3.2,73,29.94,10.0,West,12.7,18.4,N/A,,Scattered Clouds,280,2012-12-04 06:15:00
12:35 AM,8.6,1.4,73,29.95,10.0,West,12.7,24.2,N/A,,Mostly Cloudy,280,2012-12-04 06:35:00
12:55 AM,10.4,1.4,67,29.96,10.0,West,13.8,23.0,N/A,,Overcast,280,2012-12-04 06:55:00
1:15 AM,10.4,3.2,73,29.96,10.0,West,19.6,25.3,N/A,,Overcast,280,2012-12-04 07:15:00
1:35 AM,10.4,1.4,67,29.97,10.0,WNW,17.3,25.3,N/A,,Overcast,290,2012-12-04 07:35:00
1:55 AM,10.4,3.2,73,29.98,10.0,West,15.0,20.7,N/A,,Overcast,280,2012-12-04 07:55:00
2:15 AM,10.4,3.2,73,30.00,10.0,West,11.5,23.0,N/A,,Overcast,280,2012-12-04 08:15:00
2:55 AM,10.4,5.0,79,30.03,10.0,WNW,16.1,24.2,N/A,,Overcast,290,2012-12-04 08:55:00
3:15 AM,10.4,5.0,79,30.04,10.0,West,17.3,24.2,N/A,,Overcast,280,2012-12-04 09:15:00
3:35 AM,10.4,5.0,79,30.05,10.0,West,12.7,23.0,N/A,,Overcast,280,2012-12-04 09:35:00
3:55 AM,10.4,5.0,79,30.06,10.0,West,13.8,17.3,N/A,,Mostly Cloudy,280,2012-12-04 09:55:00
4:15 AM,10.4,5.0,79,30.07,10.0,WNW,15.0,23.0,N/A,,Scattered Clouds,290,2012-12-04 10:15:00
4:35 AM,10.4,5.0,79,30.07,10.0,WNW,13.8,19.6,N/A,,Mostly Cloudy,290,2012-12-04 10:35:00
4:55 AM,10.4,5.0,79,30.08,10.0,West,13.8,23.0,N/A,,Scattered Clouds,280,2012-12-04 10:55:00
5:15 AM,10.4,5.0,79,30.08,10.0,West,13.8,21.9,N/A,,Clear,280,2012-12-04 11:15:00
5:35 AM,8.6,3.2,79,30.11,10.0,West,13.8,21.9,N/A,,Clear,280,2012-12-04 11:35:00
5:55 AM,8.6,3.2,79,30.12,10.0,West,11.5,17.3,N/A,,Clear,280,2012-12-04 11:55:00
6:15 AM,8.6,3.2,79,30.12,10.0,West,10.4,18.4,N/A,,Clear,280,2012-12-04 12:15:00
6:35 AM,8.6,3.2,79,30.13,10.0,WNW,12.7,-,N/A,,Clear,290,2012-12-04 12:35:00
6:55 AM,8.6,3.2,79,30.14,10.0,WNW,12.7,16.1,N/A,,Clear,300,2012-12-04 12:55:00
7:15 AM,8.6,3.2,79,30.15,10.0,WNW,10.4,-,N/A,,Clear,290,2012-12-04 13:15:00
7:35 AM,8.6,3.2,79,30.17,10.0,WNW,10.4,-,N/A,,Clear,290,2012-12-04 13:35:00
7:55 AM,8.6,3.2,79,30.18,10.0,West,10.4,16.1,N/A,,Clear,280,2012-12-04 13:55:00
8:15 AM,8.6,3.2,79,30.19,10.0,WNW,10.4,-,N/A,,Clear,290,2012-12-04 14:15:00
8:35 AM,8.6,3.2,79,30.21,10.0,West,10.4,-,N/A,,Partly Cloudy,280,2012-12-04 14:35:00
8:55 AM,8.6,3.2,79,30.22,10.0,WNW,9.2,-,N/A,,Partly Cloudy,290,2012-12-04 14:55:00
9:15 AM,8.6,3.2,79,30.23,10.0,WNW,9.2,16.1,N/A,,Clear,300,2012-12-04 15:15:00
9:35 AM,10.4,5.0,79,30.25,10.0,WNW,10.4,18.4,N/A,,Partly Cloudy,290,2012-12-04 15:35:00
9:55 AM,10.4,5.0,79,30.26,10.0,WNW,10.4,17.3,N/A,,Scattered Clouds,290,2012-12-04 15:55:00
10:15 AM,10.4,5.0,79,30.27,10.0,WNW,8.1,-,N/A,,Partly Cloudy,300,2012-12-04 16:15:00
10:35 AM,10.4,5.0,79,30.29,10.0,WNW,12.7,18.4,N/A,,Scattered Clouds,300,2012-12-04 16:35:00
10:55 AM,12.2,5.0,73,30.29,10.0,WNW,12.7,17.3,N/A,,Scattered Clouds,300,2012-12-04 16:55:00
11:15 AM,12.2,5.0,73,30.30,10.0,West,10.4,18.4,N/A,,Mostly Cloudy,280,2012-12-04 17:15:00
11:35 AM,14.0,6.8,73,30.30,10.0,WNW,10.4,-,N/A,,Mostly Cloudy,300,2012-12-04 17:35:00
11:55 AM,14.0,6.8,73,30.29,10.0,WNW,11.5,-,N/A,,Mostly Cloudy,300,2012-12-04 17:55:00
12:15 PM,14.0,6.8,73,30.29,10.0,WNW,8.1,-,N/A,,Mostly Cloudy,300,2012-12-04 18:15:00
12:35 PM,15.8,8.6,73,30.29,10.0,NW,6.9,-,N/A,,Mostly Cloudy,310,2012-12-04 18:35:00
12:55 PM,15.8,8.6,73,30.29,10.0,WNW,6.9,-,N/A,,Overcast,300,2012-12-04 18:55:00
1:15 PM,15.8,8.6,73,30.29,10.0,NNW,5.8,-,N/A,,Overcast,330,2012-12-04 19:15:00
1:35 PM,15.8,8.6,73,30.29,10.0,NW,4.6,-,N/A,,Overcast,320,2012-12-04 19:35:00
1:55 PM,15.8,8.6,73,30.30,10.0,NW,3.5,-,N/A,,Overcast,310,2012-12-04 19:55:00
2:15 PM,15.8,8.6,73,30.29,10.0,WNW,3.5,-,N/A,,Mostly Cloudy,300,2012-12-04 20:15:00
2:35 PM,15.8,8.6,73,30.30,10.0,Calm,Calm,-,N/A,,Mostly Cloudy,0,2012-12-04 20:35:00
2:55 PM,15.8,8.6,73,30.31,10.0,Calm,Calm,-,N/A,,Overcast,0,2012-12-04 20:55:00
3:15 PM,15.8,10.4,79,30.31,10.0,Calm,Calm,-,N/A,,Overcast,0,2012-12-04 21:15:00
3:35 PM,15.8,10.4,79,30.31,10.0,Calm,Calm,-,N/A,,Mostly Cloudy,0,2012-12-04 21:35:00
3:55 PM,15.8,8.6,73,30.33,10.0,Calm,Calm,-,N/A,,Scattered Clouds,0,2012-12-04 21:55:00
4:15 PM,15.8,8.6,73,30.34,10.0,Calm,Calm,-,N/A,,Partly Cloudy,0,2012-12-04 22:15:00
4:35 PM,14.0,10.4,86,30.35,10.0,SE,5.8,-,N/A,,Clear,140,2012-12-04 22:35:00
4:55 PM,14.0,10.4,86,30.35,10.0,SE,4.6,-,N/A,,Partly Cloudy,130,2012-12-04 22:55:00
5:15 PM,12.2,8.6,85,30.34,10.0,ESE,4.6,-,N/A,,Clear,120,2012-12-04 23:15:00
5:35 PM,10.4,8.6,92,30.34,10.0,ESE,3.5,-,N/A,,Clear,120,2012-12-04 23:35:00
5:55 PM,10.4,8.6,92,30.36,10.0,SSE,3.5,-,N/A,,Clear,160,2012-12-04 23:55:00
6:15 PM,10.4,8.6,92,30.35,10.0,SE,5.8,-,N/A,,Clear,140,2012-12-05 00:15:00
6:35 PM,8.6,8.6,100,30.34,10.0,SSE,5.8,-,N/A,,Clear,150,2012-12-05 00:35:00
6:55 PM,8.6,8.6,100,30.34,10.0,SSE,5.8,-,N/A,,Clear,160,2012-12-05 00:55:00
7:15 PM,8.6,8.6,100,30.34,10.0,South,6.9,-,N/A,,Clear,170,2012-12-05 01:15:00
7:35 PM,8.6,8.6,100,30.35,10.0,South,6.9,-,N/A,,Clear,170,2012-12-05 01:35:00
7:55 PM,8.6,6.8,92,30.35,10.0,South,6.9,-,N/A,,Clear,180,2012-12-05 01:55:00
8:15 PM,8.6,6.8,92,30.34,10.0,SSE,4.6,-,N/A,,Clear,150,2012-12-05 02:15:00
8:35 PM,6.8,6.8,100,30.33,10.0,SSE,8.1,-,N/A,,Clear,160,2012-12-05 02:35:00
8:55 PM,6.8,6.8,100,30.34,10.0,SSE,8.1,-,N/A,,Clear,160,2012-12-05 02:55:00
9:15 PM,6.8,5.0,92,30.35,-9999.0,South,8.1,-,N/A,,Unknown,170,2012-12-05 03:15:00
9:35 PM,6.8,6.8,100,30.35,-9999.0,South,8.1,-,N/A,,Unknown,170,2012-12-05 03:35:00
9:55 PM,6.8,6.8,100,30.35,-9999.0,South,8.1,-,N/A,,Unknown,170,2012-12-05 03:55:00
10:15 PM,6.8,6.8,100,30.36,10.0,South,9.2,-,N/A,,Clear,180,2012-12-05 04:15:00
10:35 PM,8.6,6.8,92,30.35,10.0,SSE,6.9,-,N/A,,Clear,160,2012-12-05 04:35:00
10:55 PM,8.6,8.6,100,30.34,10.0,SSE,9.2,-,N/A,,Clear,160,2012-12-05 04:55:00
11:15 PM,8.6,8.6,100,30.33,10.0,SSE,10.4,-,N/A,,Clear,160,2012-12-05 05:15:00
11:35 PM,10.4,8.6,92,30.33,10.0,SSE,9.2,-,N/A,,Clear,160,2012-12-05 05:35:00
11:55 PM,10.4,8.6,92,30.31,10.0,SSE,10.4,-,N/A,,Clear,150,2012-12-05 05:55:00